Date,TemperatureHighF,TemperatureAvgF,TemperatureLowF,DewpointHighF,DewpointAvgF,DewpointLowF,HumidityHigh,HumidityAvg,HumidityLow,PressureMaxIn,PressureMinIn,WindSpeedMaxMPH,WindSpeedAvgMPH,GustSpeedMaxMPH,PrecipitationSumIn
2013-1-1,49,44,39,44,34,14,98,70,31,30.31,30.19,7,2,18,0.18
2013-1-2,45,41,37,44,36,31,96,81,62,30.35,30.15,11,4,21,0.17
2013-1-3,39,34,31,36,30,22,98,83,58,30.46,30.32,8,2,23,0.01
2013-1-4,41,32,28,21,16,11,67,53,31,30.51,30.43,15,10,33,0.00
2013-1-5,47,36,28,22,17,11,62,48,27,30.56,30.44,11,3,27,0.00
2013-1-6,52,40,34,34,30,25,82,67,43,30.42,30.26,10,5,22,0.00
2013-1-7,50,37,30,26,23,21,72,59,34,30.61,30.40,15,4,35,0.00
2013-1-8,53,39,31,35,29,24,82,68,48,30.64,30.57,2,0,6,0.00
2013-1-9,56,50,41,50,45,35,98,86,72,30.69,30.60,6,1,14,0.00
2013-1-10,62,54,49,51,47,32,92,80,51,30.76,30.63,6,1,16,0.00
2013-1-11,56,46,42,54,45,33,98,96,56,30.62,30.41,2,0,8,0.38
2013-1-12,70,60,55,62,57,53,99,91,75,30.44,30.38,2,0,10,0.02
2013-1-13,66,59,55,57,55,53,97,87,67,30.39,30.31,3,1,12,0.01
2013-1-14,60,57,47,59,56,46,99,98,95,30.39,30.33,11,1,23,1.36
2013-1-15,51,44,37,50,43,36,98,97,96,30.41,30.30,1,0,19,1.33
2013-1-16,55,46,38,50,44,37,98,94,81,30.29,30.21,2,1,11,0.79
2013-1-17,50,43,33,49,42,31,98,98,91,30.38,30.09,7,1,15,1.96
2013-1-18,51,35,28,27,21,19,80,60,32,30.69,30.38,13,3,34,0.46
2013-1-19,53,37,27,27,22,19,74,55,35,30.67,30.38,1,0,8,0.02
2013-1-20,56,44,36,30,23,10,58,44,27,30.36,30.27,8,6,26,0.00
2013-1-21,49,40,31,26,18,9,61,43,29,30.31,30.17,11,7,26,0.00
2013-1-22,33,24,18,7,-2,-9,48,33,17,30.39,30.19,12,7,26,0.00
2013-1-23,44,30,22,22,10,-2,53,41,32,30.47,30.24,9,4,20,0.00
2013-1-24,41,32,18,27,10,-3,61,42,23,30.60,30.14,10,6,30,0.00
2013-1-25,38,21,14,35,14,2,97,75,49,30.63,30.25,9,1,24,0.01
2013-1-26,42,36,31,33,23,16,88,62,38,30.53,30.26,12,7,29,0.09
2013-1-27,36,30,22,26,24,20,96,78,63,30.70,30.54,1,0,7,0.01
2013-1-28,59,44,31,43,34,27,89,72,52,30.63,30.47,2,0,7,0.01
2013-1-29,70,58,49,55,46,38,93,66,46,30.47,30.31,2,0,9,0.00
2013-1-30,60,56,45,58,55,44,98,96,93,30.30,29.73,10,4,25,2.09
2013-1-31,44,34,29,42,18,14,91,53,43,30.19,29.73,12,7,32,1.04
2013-2-1,40,26,18,29,10,2,93,52,34,30.49,30.08,11,8,35,0.00
2013-2-2,39,28,17,30,10,-2,92,48,29,30.50,30.21,6,1,15,0.00
2013-2-3,41,33,28,29,23,18,79,65,49,30.19,30.06,15,8,34,0.00
2013-2-4,49,34,25,23,18,14,69,52,33,30.30,30.17,14,4,37,0.00
2013-2-5,54,44,33,35,26,19,60,50,34,30.22,30.12,9,3,23,0.00
2013-2-6,61,47,37,33,22,8,66,42,14,30.46,30.21,9,5,23,0.00
2013-2-7,42,38,36,38,28,15,98,69,33,30.50,30.25,1,0,8,0.71
2013-2-8,52,41,33,43,34,24,98,80,47,30.30,30.10,12,4,29,0.38
2013-2-9,60,40,29,24,17,10,70,47,14,30.55,30.30,10,4,21,0.01
2013-2-10,52,43,36,37,24,13,98,54,26,30.62,30.42,1,0,8,0.26
2013-2-11,55,49,41,55,40,23,99,78,33,30.38,30.22,12,4,27,0.35
2013-2-12,58,44,36,36,22,19,95,45,23,30.32,30.18,17,7,40,0.06
2013-2-13,42,37,33,41,35,27,98,94,78,30.17,29.87,14,3,32,0.28
2013-2-14,54,39,30,31,26,22,80,59,36,30.26,30.04,14,4,29,0.01
2013-2-15,55,41,33,34,28,24,77,62,31,30.30,30.17,11,4,26,0.00
2013-2-16,36,30,22,26,18,10,79,61,45,30.19,30.02,12,7,35,0.00
2013-2-17,34,25,18,7,4,2,56,42,27,30.40,30.14,15,8,39,0.00
2013-2-18,50,37,25,21,14,4,49,39,26,30.53,30.38,5,1,13,0.00
2013-2-19,48,39,32,39,24,7,97,58,27,30.37,30.07,13,5,32,0.04
2013-2-20,44,34,28,12,3,-2,42,27,15,30.30,30.21,14,10,31,0.04
2013-2-21,61,45,30,32,10,-4,88,28,11,30.44,30.29,9,1,22,0.03
2013-2-22,36,34,32,35,33,32,98,97,91,30.47,30.31,0,0,5,0.63
2013-2-23,48,40,32,45,39,31,98,96,85,30.32,30.07,18,1,112,0.20
2013-2-24,57,45,37,38,26,17,81,51,23,30.26,30.07,15,8,195,0.01
2013-2-25,44,36,32,25,21,15,73,56,41,30.37,30.24,6,1,161,0.00
2013-2-26,34,32,29,33,30,23,98,95,68,30.28,29.81,2,0,16,1.25
2013-2-27,58,41,33,36,30,25,97,67,42,30.00,29.84,11,5,25,0.04
2013-2-28,37,33,30,27,23,20,75,66,60,30.08,29.91,14,6,29,0.01
2013-3-1,38,33,30,27,25,22,84,73,59,30.12,30.04,10,7,27,0.00
2013-3-2,40,33,26,27,23,18,80,67,45,30.10,30.03,12,7,33,0.00
2013-3-3,32,26,21,17,13,9,73,58,45,30.17,30.06,14,11,33,0.00
2013-3-4,53,35,23,14,10,3,64,40,15,30.29,30.16,9,4,20,0.00
2013-3-5,42,39,35,40,31,14,98,77,36,30.26,29.85,12,1,32,1.18
2013-3-6,33,29,24,28,22,18,92,76,60,30.30,29.83,20,12,46,0.96
2013-3-7,42,32,26,26,23,21,86,71,51,30.45,30.27,16,8,33,0.00
2013-3-8,49,36,26,22,20,18,77,55,34,30.53,30.42,8,6,18,0.00
2013-3-9,65,46,32,24,20,13,54,36,18,30.55,30.47,2,0,11,0.00
2013-3-10,67,51,40,32,28,23,58,41,26,30.52,30.41,1,0,9,0.00
2013-3-11,50,46,42,49,41,30,98,85,54,30.44,30.13,3,0,11,0.33
2013-3-12,50,45,38,49,36,25,98,74,40,30.20,30.01,14,8,29,0.97
2013-3-13,42,36,28,29,20,13,68,54,35,30.32,30.21,13,8,31,0.01
2013-3-14,45,32,23,14,11,5,64,43,19,30.45,30.32,16,8,41,0.01
2013-3-15,65,47,32,37,24,12,70,42,26,30.39,30.18,8,4,20,0.00
2013-3-16,78,64,51,44,38,34,60,41,22,30.17,30.01,10,6,24,0.00
2013-3-17,73,58,39,49,43,37,95,60,33,30.32,30.15,7,2,17,0.00
2013-3-18,39,35,32,38,35,32,100,99,96,30.33,30.10,3,0,20,0.55
2013-3-19,56,44,37,44,26,5,100,56,21,30.30,30.06,13,6,32,0.43
2013-3-20,53,40,32,30,7,2,90,27,12,30.31,30.04,9,5,26,0.00
2013-3-21,33,28,20,26,9,4,85,46,31,30.13,29.96,15,10,38,0.00
2013-3-22,49,34,23,22,11,8,54,41,21,30.22,30.13,9,3,19,0.00
2013-3-23,58,44,36,40,32,24,84,63,33,30.25,30.13,4,1,11,0.00
2013-3-24,42,38,33,39,36,33,100,95,86,30.15,29.77,4,1,12,0.65
2013-3-25,35,32,28,33,25,21,100,78,59,30.04,29.75,7,0,23,0.15
2013-3-26,37,30,27,25,23,21,86,74,60,30.35,30.02,0,0,0,0.01
2013-3-27,40,33,29,24,20,17,79,61,41,30.44,30.34,0,0,0,0.00
2013-3-28,48,43,36,20,18,16,51,38,28,30.51,30.43,0,0,3,0.00
2013-3-29,56,41,31,34,22,12,82,51,17,30.53,30.45,4,0,163,0.00
2013-3-30,64,49,39,37,32,-100,82,60,31,30.45,30.32,7,2,130,0.00
2013-3-31,60,50,44,52,46,37,99,86,62,30.31,30.10,7,1,194,0.35
2013-4-1,62,50,41,49,37,27,97,63,39,30.21,30.10,11,6,90,0.12
2013-4-2,57,44,34,30,20,12,66,42,19,30.38,30.22,12,7,25,0.00
2013-4-3,60,45,33,21,15,9,40,30,19,30.51,30.36,7,2,23,0.00
2013-4-4,43,36,32,34,24,8,100,70,26,30.50,30.22,1,0,10,0.78
2013-4-5,58,46,34,41,36,31,100,72,37,30.32,30.13,7,4,18,0.36
2013-4-6,68,53,41,32,30,27,68,44,23,30.47,30.32,3,0,13,0.01
2013-4-7,71,54,42,42,37,31,74,54,32,30.47,30.36,3,1,11,0.00
2013-4-8,77,62,51,51,44,39,71,53,33,30.42,30.33,5,1,17,0.00
2013-4-9,86,67,55,51,48,46,76,53,28,30.49,30.38,2,1,13,0.00
2013-4-10,86,72,60,52,50,47,72,49,27,30.40,30.26,3,1,10,0.00
2013-4-11,78,66,54,61,53,51,95,66,39,30.27,30.02,5,1,16,0.02
2013-4-12,72,61,51,62,50,32,100,72,33,30.13,29.94,10,4,23,1.73
2013-4-13,71,56,46,35,31,23,63,41,17,30.31,30.06,17,8,42,0.11
2013-4-14,72,59,50,48,34,25,86,42,26,30.37,30.26,5,1,13,0.01
2013-4-15,56,52,49,54,51,48,100,97,89,30.49,30.26,1,0,9,0.34
2013-4-16,80,63,52,58,54,51,99,76,40,30.57,30.48,1,0,8,0.01
2013-4-17,72,62,56,62,56,53,97,83,60,30.55,30.43,6,1,16,0.27
2013-4-18,76,64,58,61,57,54,96,78,48,30.44,30.29,2,0,11,0.05
2013-4-19,62,58,44,62,56,34,100,96,67,30.26,30.03,12,4,32,0.72
2013-4-20,59,46,34,35,25,21,74,47,23,30.52,30.16,15,8,37,0.01
2013-4-21,63,50,40,33,27,19,64,42,29,30.67,30.53,4,1,15,0.00
2013-4-22,65,49,37,35,32,24,87,55,28,30.66,30.48,3,1,13,0.00
2013-4-23,74,55,39,44,35,22,77,50,26,30.53,30.37,2,0,10,0.00
2013-4-24,71,58,48,56,49,44,90,73,46,30.41,30.27,8,2,18,0.04
2013-4-25,69,54,38,45,27,0,84,46,7,30.56,30.35,11,6,26,0.01
2013-4-26,68,55,42,36,28,23,48,36,24,30.67,30.56,6,1,17,0.00
2013-4-27,59,52,48,50,43,-100,99,76,57,30.64,30.53,1,0,7,0.18
2013-4-28,51,49,46,51,49,46,100,99,95,30.51,30.30,0,0,11,1.16
2013-4-29,70,58,49,56,53,49,100,86,60,30.34,30.23,1,0,8,0.28
2013-4-30,75,63,54,58,55,53,100,79,49,30.46,30.28,2,0,8,0.00
2013-5-1,62,56,52,55,52,49,99,87,66,30.56,30.47,2,0,12,0.01
2013-5-2,57,52,48,55,51,48,100,98,92,30.58,30.51,2,0,12,0.20
2013-5-3,57,52,47,51,48,45,100,89,71,30.52,30.39,3,1,16,0.17
2013-5-4,51,47,43,46,43,38,97,87,79,30.38,30.26,3,2,14,0.01
2013-5-5,49,45,41,49,44,40,100,99,98,30.30,30.10,5,4,23,2.67
2013-5-6,68,55,46,56,48,40,100,81,40,30.17,30.08,4,0,20,2.49
2013-5-7,63,51,44,52,46,42,99,86,53,30.21,30.13,4,1,10,0.13
2013-5-8,65,56,50,53,50,48,98,82,62,30.31,30.19,6,2,15,0.07
2013-5-9,80,64,51,54,50,46,91,65,31,30.39,30.30,6,3,17,0.00
2013-5-10,80,67,58,56,53,48,79,62,44,30.39,30.27,3,1,15,0.00
2013-5-11,74,63,58,62,54,-100,96,76,56,30.28,30.12,4,1,12,0.78
2013-5-12,63,55,48,49,37,25,82,54,30,30.30,30.14,8,6,26,0.78
2013-5-13,61,50,39,30,25,19,66,41,20,30.44,30.30,7,4,22,0.00
2013-5-14,75,56,40,47,35,26,64,48,28,30.49,30.36,2,0,10,0.00
2013-5-15,88,71,55,52,48,41,71,46,21,30.37,30.28,10,5,26,0.00
2013-5-16,80,62,62,52,27,-100,57,46,26,30.35,30.27,6,3,18,0.00
2013-5-17,84,66,57,59,46,-100,73,57,41,30.41,30.32,4,1,11,0.00
2013-5-18,66,62,59,63,59,52,100,91,64,30.44,30.38,0,0,8,0.87
2013-5-19,67,63,60,66,63,60,100,99,93,30.42,30.34,0,0,8,1.02
2013-5-20,82,69,61,67,64,61,100,87,56,30.43,30.34,1,0,8,0.11
2013-5-21,85,71,60,69,64,60,100,81,43,30.38,30.27,6,1,13,0.51
2013-5-22,78,64,59,67,62,57,100,93,64,30.32,30.23,6,0,23,2.06
2013-5-23,81,66,58,66,57,49,100,77,35,30.28,30.15,7,2,18,1.16
2013-5-24,65,58,51,51,42,33,84,58,31,30.48,30.18,11,6,27,0.00
2013-5-25,77,58,45,39,34,27,66,44,17,30.56,30.47,6,3,18,0.00
2013-5-26,75,62,52,47,41,35,68,48,28,30.56,30.46,4,1,16,0.00
2013-5-27,82,65,51,57,51,45,83,64,39,30.56,30.45,1,0,8,0.00
2013-5-28,84,70,59,64,58,55,90,68,44,30.53,30.46,2,0,13,0.00
2013-5-29,86,70,57,63,59,56,99,71,39,30.54,30.48,1,0,11,0.00
2013-5-30,86,70,59,64,59,55,99,72,42,30.59,30.50,0,0,7,0.00
2013-5-31,85,71,63,63,59,56,89,69,42,30.54,30.13,2,0,12,0.00
2013-6-1,85,72,62,65,61,58,96,71,45,30.14,30.04,2,0,14,0.00
2013-6-2,70,65,61,67,61,-100,99,92,73,30.07,29.91,2,0,11,1.16
2013-6-3,83,70,61,64,60,54,100,75,37,29.99,29.88,6,2,17,0.07
2013-6-4,81,68,60,62,60,56,97,76,53,30.10,29.98,2,0,10,0.01
2013-6-5,72,66,61,64,62,58,99,87,76,30.11,30.01,1,0,8,0.70
2013-6-6,75,66,62,67,64,62,100,94,76,30.01,29.81,0,0,7,0.88
2013-6-7,82,66,61,66,63,61,100,91,56,29.84,29.69,5,1,16,0.53
2013-6-8,81,68,56,67,62,56,100,86,60,30.10,29.83,3,0,12,1.58
2013-6-9,84,67,62,69,64,62,100,92,59,30.16,30.08,0,0,7,0.58
2013-6-10,78,68,64,67,65,62,100,91,67,30.08,29.91,2,0,10,1.21
2013-6-11,84,70,60,65,59,56,99,72,42,30.03,29.94,7,3,24,0.04
2013-6-12,92,77,65,70,64,58,79,66,41,30.04,29.95,8,4,21,0.00
2013-6-13,91,74,64,66,62,58,96,69,35,29.95,29.74,11,6,34,0.21
2013-6-14,81,66,55,59,53,48,95,65,32,30.05,29.82,5,2,15,0.12
2013-6-15,83,66,55,61,55,50,87,68,39,30.14,30.05,2,0,9,0.00
2013-6-16,81,70,59,65,61,57,93,75,53,30.14,30.05,2,0,9,0.00
2013-6-17,83,70,64,69,65,62,99,87,60,30.06,29.97,3,0,16,0.30
2013-6-18,75,67,61,70,66,59,99,94,81,30.00,29.83,4,1,10,0.17
2013-6-19,79,67,57,64,60,56,97,81,57,30.14,29.94,2,0,9,0.01
2013-6-20,79,67,60,65,62,59,99,88,55,30.24,30.13,1,0,7,0.00
2013-6-22,84,74,64,62,61,58,82,65,45,30.25,30.16,0,0,6,0.00
2013-6-23,83,70,62,65,62,58,98,79,53,30.24,30.16,1,0,10,0.00
2013-6-24,84,68,62,69,65,62,99,91,55,30.23,30.14,0,0,11,0.09
2013-6-25,86,70,62,68,65,60,99,85,48,30.17,30.04,5,1,13,0.02
2013-6-26,84,71,63,71,66,63,99,87,55,30.07,29.96,5,1,13,0.17
2013-6-27,85,72,63,71,66,60,99,81,58,29.97,29.79,6,2,14,0.10
2013-6-28,87,72,64,66,64,59,98,77,46,29.83,29.66,10,6,27,0.25
2013-6-29,85,71,60,66,60,54,98,72,40,29.73,29.65,3,0,12,0.25
2013-6-30,84,68,60,68,63,56,99,84,52,29.84,29.71,0,0,7,0.26
2013-7-1,77,68,62,68,66,62,100,92,69,29.97,29.83,1,0,7,0.43
2013-7-2,77,67,62,71,66,61,99,95,81,30.15,29.97,0,0,10,0.47
2013-7-3,74,67,60,70,66,59,100,98,88,30.21,30.13,4,0,15,1.16
2013-7-4,74,66,59,72,66,59,100,98,87,30.24,30.18,1,0,13,2.29
2013-7-5,80,68,64,72,66,64,100,95,65,30.26,30.19,1,0,10,1.13
2013-7-6,81,69,65,71,67,65,100,95,72,30.24,30.14,0,0,12,1.78
2013-7-7,82,71,66,71,68,65,100,93,67,30.19,30.10,0,0,9,2.92
2013-7-8,85,70,65,71,64,-100,100,87,51,30.22,30.15,5,1,14,0.19
2013-7-9,89,72,64,70,66,63,99,85,52,30.19,30.11,3,0,10,0.01
2013-7-10,84,70,64,74,66,-100,100,91,64,30.16,30.00,1,0,7,0.41
2013-7-11,79,71,65,71,68,65,100,90,72,30.00,29.91,2,0,9,0.20
2013-7-12,80,68,59,69,65,58,100,92,66,30.03,29.91,1,0,11,0.22
2013-7-13,77,66,61,69,65,61,100,94,71,30.14,30.03,0,0,10,0.23
2013-7-14,77,69,67,71,68,67,100,97,82,30.31,30.11,2,0,12,1.34
2013-7-15,85,72,65,69,67,64,100,88,54,30.36,30.30,0,0,7,0.32
2013-7-16,92,81,65,67,64,61,98,61,37,30.33,30.28,1,0,8,0.00
2013-7-17,90,71,64,73,66,64,99,85,55,30.31,30.22,8,1,21,0.31
2013-7-18,89,78,65,72,69,63,96,76,52,30.24,30.12,2,0,9,0.04
2013-7-19,88,74,66,71,69,66,99,84,54,30.16,30.04,0,0,8,0.00
2013-7-20,82,71,66,72,68,65,99,90,64,30.08,29.96,0,0,4,0.34
2013-7-21,80,70,65,73,68,64,99,91,67,30.04,29.97,0,0,14,0.77
2013-7-22,84,72,64,72,67,62,100,86,59,30.02,29.87,5,1,17,0.90
2013-7-23,86,72,65,67,64,62,99,80,47,29.90,29.83,6,3,20,0.83
2013-7-24,89,75,66,69,64,60,88,70,38,29.89,29.79,6,3,20,0.00
2013-7-25,84,70,62,68,64,60,99,82,56,30.06,29.88,0,0,9,0.00
2013-7-26,80,69,60,68,64,58,100,86,60,30.12,30.04,0,0,7,0.01
2013-7-27,76,68,63,70,66,62,99,95,80,30.05,29.94,0,0,11,1.89
2013-7-28,81,70,62,69,65,59,100,85,57,30.03,29.93,4,0,10,0.38
2013-7-29,85,69,59,62,58,53,92,70,47,30.20,30.03,4,1,13,0.01
2013-7-30,79,68,61,65,59,51,94,72,55,30.24,30.17,1,0,6,0.00
2013-7-31,69,66,63,67,65,63,99,96,89,30.19,30.01,0,0,6,0.12
2013-8-1,83,69,63,69,65,62,100,89,50,30.01,29.93,3,1,15,0.35
2013-8-2,82,71,62,69,64,60,93,79,57,30.06,29.96,5,2,12,0.02
2013-8-3,86,73,65,67,65,62,99,78,49,30.06,30.00,4,1,15,0.00
2013-8-4,85,72,63,65,61,57,93,72,41,30.06,29.96,6,4,19,0.00
2013-8-5,81,70,63,67,61,56,98,75,53,30.09,30.01,3,0,8,0.03
2013-8-6,77,69,65,70,67,64,99,92,72,30.07,29.98,0,0,8,0.07
2013-8-7,72,68,64,69,67,64,100,98,91,30.09,30.04,0,0,8,0.54
2013-8-8,77,70,65,73,68,65,100,94,79,30.09,30.04,0,0,8,0.29
2013-8-9,85,73,66,72,69,66,99,89,58,30.10,30.04,0,0,9,0.06
2013-8-10,84,72,66,72,68,65,100,89,63,30.15,30.08,3,0,10,0.03
2013-8-11,87,73,64,72,67,63,99,82,53,30.16,30.09,5,1,16,0.08
2013-8-12,85,73,67,72,68,66,98,87,58,30.12,30.01,4,1,13,0.19
2013-8-13,83,71,66,69,64,-100,99,84,60,30.01,29.87,7,2,22,0.01
2013-8-14,79,66,61,64,58,-100,93,78,47,30.08,29.91,5,1,16,0.01
2013-8-15,66,57,55,58,43,-100,99,76,63,30.16,30.07,0,0,0,0.00
2013-8-16,76,62,52,60,56,52,100,83,53,30.16,30.08,0,0,5,0.00
2013-8-17,67,60,57,61,57,52,100,88,74,30.18,30.12,0,0,4,0.26
2013-8-18,75,64,59,67,61,-100,100,94,76,30.21,30.12,0,0,0,0.47
2013-8-19,74,63,62,66,53,-100,100,93,76,30.20,30.11,0,0,0,0.49
2013-8-20,79,68,60,69,63,-100,100,91,65,30.21,30.12,0,0,0,0.01
2013-8-21,76,69,64,70,66,64,100,93,72,30.25,30.14,0,0,0,0.00
2013-8-22,86,73,63,69,64,62,100,78,44,30.18,30.05,0,0,7,0.00
2013-8-23,85,70,64,68,64,61,94,81,52,30.10,30.02,5,1,13,0.00
2013-8-24,81,68,61,65,59,54,99,79,42,30.31,30.10,0,0,8,0.00
2013-8-25,80,61,55,59,53,-100,96,81,43,30.38,30.30,0,0,7,0.00
2013-8-26,85,67,55,65,59,54,100,80,48,30.33,30.15,2,0,7,0.00
2013-8-27,85,70,63,69,62,59,88,77,58,30.16,30.06,6,4,14,0.00
2013-8-28,88,81,73,69,67,66,78,64,52,30.06,29.97,8,2,18,0.00
2013-8-29,91,77,69,71,66,59,93,69,35,30.04,29.93,10,3,29,0.00
2013-8-30,82,72,66,70,68,66,99,88,65,30.08,29.98,0,0,6,0.03
2013-8-31,82,70,66,72,68,65,99,92,66,30.00,29.92,0,0,9,0.21
2013-9-1,85,69,65,74,65,-100,99,91,61,29.94,29.85,1,0,14,0.66
2013-9-2,86,73,65,68,66,63,99,80,54,29.94,29.86,6,2,19,0.01
2013-9-3,84,71,61,66,62,57,97,76,45,30.01,29.84,9,4,22,0.09
2013-9-4,86,70,60,68,62,56,95,78,51,30.13,30.00,4,1,10,0.02
2013-9-5,85,69,59,61,58,54,88,70,42,30.15,30.09,5,2,11,0.00
2013-9-6,81,67,56,63,58,54,96,76,53,30.20,30.10,4,1,16,0.00
2013-9-7,83,67,55,68,60,55,100,82,59,30.14,30.01,5,0,12,0.00
2013-9-8,82,70,63,68,61,-100,93,76,48,30.04,29.97,5,1,13,0.01
2013-9-9,84,71,64,70,64,61,94,80,53,30.17,30.04,1,0,9,0.01
2013-9-10,86,72,61,67,64,60,98,78,46,30.26,30.17,1,0,7,0.00
2013-9-11,83,72,63,71,65,61,95,82,60,30.25,30.13,3,0,10,0.15
2013-9-12,85,72,64,68,65,60,95,79,55,30.13,29.89,8,4,18,0.01
2013-9-13,78,68,57,62,55,44,88,66,40,29.90,29.82,10,6,24,0.01
2013-9-14,69,55,46,53,48,43,93,77,49,30.10,29.90,5,1,13,0.00
2013-9-15,77,59,52,61,53,-100,98,86,51,30.19,30.10,0,0,8,0.00
2013-9-16,81,67,56,63,57,51,100,75,43,30.18,30.09,4,1,14,0.00
2013-9-17,67,61,55,57,53,49,88,76,59,30.30,30.18,2,0,11,0.00
2013-9-18,57,55,51,52,50,49,92,84,76,30.25,30.17,1,0,8,0.00
2013-9-19,80,65,57,66,60,55,99,86,55,30.17,30.09,0,0,7,0.00
2013-9-20,80,67,60,66,62,60,100,86,56,30.09,29.95,5,1,15,0.00
2013-9-21,65,62,55,65,62,54,100,99,97,29.95,29.72,4,0,16,0.58
2013-9-22,77,59,52,57,51,-100,100,80,46,29.90,29.73,61,5,51,0.06
2013-9-23,72,59,50,59,53,49,99,82,54,30.04,29.90,37,3,8,0.01
2013-9-24,77,62,52,60,57,52,100,85,56,30.05,29.94,69,15,183,0.00
2013-9-25,61,58,52,61,57,51,100,98,93,29.94,29.86,5,-42,187,0.27
2013-9-26,70,58,52,58,53,48,100,85,47,30.03,29.87,31,-45,134,0.04
2013-9-27,75,59,51,57,52,49,95,78,51,30.17,30.03,0,0,8,0.01
2013-9-28,70,59,52,56,53,49,99,82,61,30.23,30.14,0,0,8,0.00
2013-9-29,71,58,48,56,50,-100,99,80,54,30.16,30.02,0,0,7,0.00
2013-9-30,73,60,52,58,55,52,100,85,55,30.07,30.00,0,0,5,0.00
2013-10-1,64,61,57,56,55,54,89,81,76,30.11,30.06,0,0,6,0.00
2013-10-2,80,64,55,62,56,53,94,77,47,30.16,30.09,4,1,11,0.00
2013-10-3,80,66,58,61,58,55,92,78,46,30.13,30.09,0,0,6,0.00
2013-10-4,84,66,59,62,60,57,93,81,40,30.16,30.09,2,0,10,0.00
2013-10-5,84,70,60,62,60,57,94,73,45,30.14,30.06,0,0,6,0.00
2013-10-6,78,66,60,65,60,58,98,83,60,30.08,29.91,1,0,8,0.00
2013-10-7,69,61,52,63,56,46,100,84,63,29.99,29.81,6,2,173,1.94
2013-10-8,69,53,45,47,44,37,88,74,45,30.18,29.99,12,2,192,0.03
2013-10-9,66,50,43,44,39,35,87,67,32,30.20,30.11,1,0,199,0.00
2013-10-10,75,59,45,50,47,42,91,67,39,30.11,29.99,6,3,15,0.00
2013-10-11,79,62,53,51,49,46,83,66,31,29.99,29.94,6,4,16,0.00
2013-10-12,71,63,57,57,55,47,90,76,59,30.09,29.96,4,1,15,0.00
2013-10-13,72,61,56,62,57,-100,100,91,67,30.21,30.09,0,0,10,0.09
2013-10-14,68,59,55,60,58,53,100,94,70,30.22,30.14,0,0,7,0.20
2013-10-15,67,57,52,57,54,52,100,91,65,30.18,30.05,0,0,6,0.02
2013-10-16,69,57,48,57,52,47,99,86,58,30.07,29.95,0,0,7,0.01
2013-10-17,62,59,55,62,58,52,99,98,90,29.96,29.83,7,1,17,0.13
2013-10-18,70,56,46,54,49,42,93,77,52,29.99,29.88,7,2,19,0.01
2013-10-19,61,56,51,56,51,41,100,86,54,29.94,29.81,6,1,18,0.00
2013-10-20,67,50,40,43,36,-100,87,65,32,30.04,29.88,7,2,18,0.00
2013-10-21,66,53,42,51,45,38,95,77,52,30.07,29.95,2,0,9,0.00
2013-10-22,68,57,49,53,48,42,98,75,39,29.95,29.76,5,2,17,0.00
2013-10-23,56,47,37,46,35,26,83,63,43,29.93,29.67,11,6,25,0.00
2013-10-24,54,41,33,36,29,24,78,63,42,30.06,29.93,11,5,28,0.00
2013-10-25,47,37,29,32,25,22,82,63,42,30.24,30.06,12,5,27,0.00
2013-10-26,57,38,25,37,27,23,93,68,34,30.24,29.97,3,0,13,0.00
2013-10-27,68,54,44,47,39,-100,80,60,39,30.05,29.96,9,4,27,0.00
2013-10-28,59,55,51,53,50,46,95,83,73,30.21,30.05,3,1,11,0.01
2013-10-29,70,56,48,51,49,47,99,80,46,30.28,30.20,1,0,10,0.01
2013-10-30,73,61,53,55,51,47,88,71,48,30.23,30.14,3,0,10,0.00
2013-10-31,61,58,55,59,54,52,95,86,75,30.16,29.86,3,1,14,0.00
2013-11-1,75,62,56,60,56,41,98,82,56,29.86,29.63,7,2,19,0.04
2013-11-2,60,52,44,42,37,31,70,56,39,29.89,29.68,11,8,27,0.01
2013-11-3,59,45,38,35,30,-100,78,59,34,30.26,29.89,7,3,20,0.00
2013-11-4,56,45,35,29,26,23,70,51,31,30.41,30.26,1,0,10,0.00
2013-11-5,57,42,32,44,32,26,92,71,41,30.43,30.35,1,0,7,0.00
2013-11-6,67,52,44,53,48,43,100,86,55,30.35,30.09,0,0,5,0.04
2013-11-7,60,50,39,52,41,28,99,74,57,30.09,29.92,15,6,34,0.01
2013-11-8,53,40,33,28,20,15,68,47,23,30.20,30.04,9,6,28,0.00
2013-11-9,54,44,34,28,22,-100,56,44,30,30.23,30.12,4,1,10,0.00
2013-11-10,65,54,44,36,26,16,53,35,22,30.17,30.08,11,8,24,0.00
2013-11-11,62,50,39,22,20,16,44,31,19,30.25,30.09,11,2,21,0.00
2013-11-12,52,38,24,34,22,12,72,54,30,30.29,29.96,13,8,29,0.00
2013-11-13,47,31,21,15,13,10,72,49,23,30.37,30.28,9,4,21,0.00
2013-11-14,60,47,29,14,12,8,51,27,15,30.32,30.21,2,0,11,0.00
2013-11-15,52,47,36,46,42,13,100,85,39,30.22,30.12,0,0,6,0.17
2013-11-16,51,48,46,51,47,-100,100,98,95,30.19,30.12,0,0,5,0.18
2013-11-17,57,52,49,57,52,49,100,100,100,30.16,29.84,1,0,10,0.40
2013-11-18,63,55,44,58,41,24,100,62,30,29.93,29.80,15,8,32,0.18
2013-11-19,56,43,34,29,22,17,59,44,26,30.16,29.90,12,4,33,0.05
2013-11-20,52,38,31,27,24,21,78,60,35,30.33,30.16,2,0,11,0.00
2013-11-21,50,42,36,46,36,25,100,79,64,30.38,30.29,0,0,8,0.08
2013-11-22,60,53,46,56,52,46,100,96,84,30.32,30.06,8,1,16,0.11
2013-11-23,55,46,31,52,37,-100,90,73,56,30.08,29.99,18,12,38,0.01
2013-11-24,36,26,19,19,5,-3,61,42,20,30.32,30.08,11,6,29,0.00
2013-11-25,33,29,21,26,6,1,93,37,29,30.35,30.18,1,0,6,0.00
2013-11-26,44,36,28,44,36,26,100,99,89,30.18,29.53,9,0,20,1.92
2013-11-27,44,31,21,43,25,13,99,80,66,29.99,29.47,20,15,41,0.24
2013-11-28,48,30,19,19,14,7,78,56,28,30.30,29.99,13,3,33,0.01
2013-11-29,56,42,30,22,20,18,71,44,24,30.46,30.30,3,0,11,0.00
2013-11-30,45,33,25,22,18,-100,83,59,36,30.47,30.23,1,0,10,0.00
2013-12-1,59,44,29,33,28,20,70,55,36,30.23,29.95,4,0,11,0.00
2013-12-2,56,48,41,34,32,28,71,57,39,29.81,29.73,1,0,7,0.00
2013-12-3,56,47,40,49,42,33,99,85,65,29.87,29.77,2,0,8,0.02
2013-12-4,53,50,48,53,50,48,100,100,98,30.01,29.87,0,0,6,0.02
2013-12-5,61,57,53,61,57,53,100,100,100,30.04,29.96,2,0,9,0.47
2013-12-6,65,62,54,64,61,53,100,96,88,29.99,29.92,12,2,25,0.60
2013-12-7,56,46,37,53,41,-100,94,83,66,30.29,29.96,12,4,25,0.38
2013-12-8,37,32,30,36,32,30,100,99,86,30.27,30.11,0,0,10,0.45
2013-12-9,57,42,30,51,40,30,100,94,78,30.11,29.95,6,2,21,0.34
2013-12-10,46,38,29,44,31,14,99,75,51,30.14,29.81,14,8,34,0.28
2013-12-11,51,39,28,22,15,9,56,39,25,30.22,30.14,10,2,29,0.25
2013-12-12,37,30,26,20,11,-6,70,46,15,30.24,30.13,10,6,28,0.00
2013-12-13,48,41,29,20,13,7,51,33,23,30.19,30.12,1,0,20,2.54
2013-12-14,39,35,32,39,29,-100,100,82,51,30.13,29.68,1,0,7,0.76
2013-12-15,43,35,30,43,30,23,100,83,71,29.95,29.63,19,12,39,0.01
2013-12-16,54,41,30,27,24,20,81,54,29,30.02,29.94,12,6,23,0.01
2013-12-17,60,48,37,35,27,22,78,47,26,30.01,29.82,15,6,35,0.00
2013-12-18,45,34,27,19,10,-3,63,42,13,30.15,29.95,17,9,34,0.00
2013-12-19,62,56,50,23,21,19,30,25,20,30.15,30.12,2,1,9,0.00
2013-12-20,59,52,42,41,33,20,81,51,34,30.11,30.05,2,0,8,0.00
2013-12-21,59,54,46,58,50,-100,98,92,81,30.06,29.96,4,1,16,0.11
2013-12-22,60,57,53,59,56,52,98,98,95,30.01,29.93,11,2,23,2.62
2013-12-23,57,48,33,56,44,28,99,88,74,30.06,29.93,14,7,32,1.22
2013-12-24,33,29,21,28,20,14,82,70,51,30.25,30.03,15,10,30,0.02
2013-12-25,40,24,16,14,8,3,82,54,24,30.32,30.20,2,0,8,0.00
2013-12-26,48,37,22,21,17,7,55,44,32,30.22,30.13,9,5,22,0.00
2013-12-27,52,39,29,20,18,14,68,45,27,30.32,30.22,2,0,7,0.00
2013-12-28,49,40,32,41,24,-100,98,62,28,30.29,30.04,6,1,12,0.25
2013-12-29,51,42,35,45,38,32,100,87,68,30.04,29.69,17,7,39,0.93
2013-12-30,44,40,36,35,33,25,79,75,63,30.01,29.81,15,6,33,0.01
2013-12-31,39,34,31,25,16,9,63,48,33,30.23,29.98,17,9,32,0.00
2014-1-1,44,38,32,27,23,13,81,56,37,30.21,30.01,3,0,8,0.00
2014-1-2,43,34,19,41,30,14,97,84,67,30.01,29.55,21,5,45,0.07